Satellite: FAST1-2
Catalog number: 37227
Epoch time:      11034.45260292
Element set:    0068
Inclination:      071.9744 deg
RA of node:       334.0929 deg
Eccentricity:    0.0017316
Arg of perigee:   175.6076 deg
Mean anomaly:     184.5273 deg
Mean motion:   14.76388212 rev/day
Decay rate:        7.9e-07 rev/day^2
Epoch rev:           01112
Checksum:              293

/EX
SB KEPS @ AMSAT  $ORB11034.W
Orbital Elements  11034.WEATHER

HR AMSAT ORBITAL ELEMENTS FOR WEATHER SATELLITES
FROM WA5QGD FORT WORTH,TX February 3, 2011
Send Subscribe/unsubscribe to KEPS at http://www.amsat.org/mailman/listinfo/kep
BID: ORB11034.W
TO ALL RADIO AMATEURS BT

Satellite: NOAA-10
Catalog number: 16969
Epoch time:      11034.11866538
Element set:     382
Inclination:      098.6343 deg
RA of node:       065.6363 deg
Eccentricity:    0.0011498
Arg of perigee:   256.7219 deg
Mean anomaly:     103.2702 deg
Mean motion:   14.27442654 rev/day
Decay rate:        5.7e-07 rev/day^2
Epoch rev:           26852
Checksum:              309

Satellite: NOAA-11
Catalog number: 19531
Epoch time:      11034.26538451
Element set:     388
Inclination:      098.7573 deg
RA of node:       124.2514 deg
Eccentricity:    0.0010789
Arg of perigee:   206.8412 deg
Mean anomaly:     153.2197 deg
Mean motion:   14.14902258 rev/day
Decay rate:      -1.10e-06 rev/day^2
Epoch rev:           15381
Checksum:              284

Satellite: NOAA-12
Catalog number: 21263
Epoch time:      11034.46252325
Element set:     881
Inclination:      098.7576 deg
RA of node:       052.4989 deg
Eccentricity:    0.0011842
Arg of perigee:   212.4418 deg
Mean anomaly:     147.6041 deg
Mean motion:   14.25681247 rev/day
Decay rate:        2.9e-07 rev/day^2
Epoch rev:            2535
Checksum:              289

Satellite: MET-3/5
Catalog number: 21655
Epoch time:      11034.65708551
Element set:      28
Inclination:      082.5597 deg
RA of node:       145.1157 deg
Eccentricity:    0.0014496
Arg of perigee:   127.9088 deg
Mean anomaly:     232.3389 deg
Mean motion:   13.17026299 rev/day
Decay rate:        5.1e-07 rev/day^2
Epoch rev:           93614
Checksum:              312

Satellite: MET-2/21
Catalog number: 22782
Epoch time:      11034.62204222
Element set:       8
Inclination:      082.5449 deg
RA of node:       068.8528 deg
Eccentricity:    0.0023894
Arg of perigee:   111.9511 deg
Mean anomaly:     248.4201 deg
Mean motion:   13.83652153 rev/day
Decay rate:        6.0e-07 rev/day^2
Epoch rev:           88008
Checksum:              276

Satellite: OKEAN-4
Catalog number: 23317
Epoch time:      11034.77181538
Element set:     464
Inclination:      082.5424 deg
RA of node:       137.7032 deg
Eccentricity:    0.0021625
Arg of perigee:   194.6972 deg
Mean anomaly:     165.3642 deg
Mean motion:   14.82931946 rev/day
Decay rate:       1.42e-06 rev/day^2
Epoch rev:           88077
Checksum:              306

Satellite: NOAA-14
Catalog number: 23455
Epoch time:      11034.42158173
Element set:     368
Inclination:      098.8595 deg
RA of node:       118.3552 deg
Eccentricity:    0.0008802
Arg of perigee:   303.2912 deg
Mean anomaly:     056.7440 deg
Mean motion:   14.13804111 rev/day
Decay rate:      -1.20e-06 rev/day^2
Epoch rev:           83017
Checksum:              271

Satellite: NOAA-15
Catalog number: 25338
Epoch time:      11034.46596466
Element set:     695
Inclination:      098.6428 deg
RA of node:       022.5270 deg
Eccentricity:    0.0011398
Arg of perigee:   118.8681 deg
Mean anomaly:     241.3631 deg
Mean motion:   14.24881227 rev/day
Decay rate:     -.00000000 rev/day^2
Epoch rev:           66168
Checksum:              302

Satellite: RESURS
Catalog number: 25394
Epoch time:      11033.64191603
Element set:    0715
Inclination:      098.2994 deg
RA of node:       044.0792 deg
Eccentricity:    0.0000602
Arg of perigee:   296.4471 deg
Mean anomaly:     063.6653 deg
Mean motion:   14.24222324 rev/day
Decay rate:       -1.4e-07 rev/day^2
Epoch rev:           65315
Checksum:              273

Satellite: FENGYUN1
Catalog number: 25730
Epoch time:      11034.48599557
Element set:     249
Inclination:      098.8042 deg
RA of node:       358.6968 deg
Eccentricity:    0.0022500
Arg of perigee:   329.5195 deg
Mean anomaly:     030.5136 deg
Mean motion:   14.08487554 rev/day
Decay rate:      -2.59e-06 rev/day^2
Epoch rev:           60424
Checksum:              319

Satellite: OKEAN-0
Catalog number: 25860
Epoch time:      11033.93277765
Element set:    0221
Inclination:      097.8649 deg
RA of node:       004.2162 deg
Eccentricity:    0.0001893
Arg of perigee:   068.5598 deg
Mean anomaly:     291.5806 deg
Mean motion:   14.73705861 rev/day
Decay rate:        7.0e-07 rev/day^2
Epoch rev:           62088
Checksum:              315

Satellite: NOAA-16
Catalog number: 26536
Epoch time:      11034.49135756
Element set:     175
Inclination:      099.1551 deg
RA of node:       062.2313 deg
Eccentricity:    0.0011037
Arg of perigee:   051.4180 deg
Mean anomaly:     308.8022 deg
Mean motion:   14.12595929 rev/day
Decay rate:       1.81e-06 rev/day^2
Epoch rev:           53448
Checksum:              283

